Watsonville, CA

8:08 PM PDT on October 23, 2017 (GMT -0700)
Watsonville Municipal

Weather History for KWVI - September, 2011

Change the Weather History Date:

Tuesday, September 20, 2011

  Actual Average Record
Temperature  
Mean Temperature 67 °F 63 °F  
Max Temperature 81 °F 75 °F 99 °F (2015)
Min Temperature 52 °F 51 °F 45 °F (2007)
Degree Days  
Heating Degree Days 0    
Month to date heating degree days 47  
Since 1 July heating degree days 195  
Cooling Degree Days 2    
Month to date cooling degree days 17  
Year to date cooling degree days 52  
Growing Degree Days 16 (Base 50)    
Moisture  
Dew Point 53 °F    
Average Humidity 65    
Maximum Humidity 86    
Minimum Humidity 43    
Precipitation  
Precipitation 0.00 in - 0.66 in (1977)
Month to date precipitation 0.01  
Year to date precipitation 18.32  
Since 1 July precipitation 0.14  
Sea Level Pressure  
Sea Level Pressure 29.92 in    
Wind  
Wind Speed 3 mph (South)    
Max Wind Speed 10 mph    
Max Gust Speed 16 mph    
Visibility 9 miles    
Events      
T = Trace of Precipitation, MM = Missing Value Source: NWS Daily Summary

Daily Weather History Graph

Daily Weather History Graph

Search for Another Location

Airport or City:

Trip Planner

Search our weather history database for the weather conditions in past years. The results will help you decide how hot, cold, wet, or windy it might be!

Date:

Astronomy

Sep. 20, 2011 Rise Set
Actual Time 6:53 AM PDT 7:07 PM PDT
Civil Twilight 6:27 AM PDT 7:33 PM PDT
Nautical Twilight 5:56 AM PDT 8:03 PM PDT
Astronomical Twilight 5:26 AM PDT 8:34 PM PDT
Moon No Moon Rise 2:26 PM PDT (9/20)
Length of Visible Light 13h 05m
Length of Day
12h 14m
Waning Gibbous, 48% of the Moon is Illuminated
Sep 20
Waning Gibbous
Sep 27
New
Oct 3
First Quarter
Oct 11
Full
Oct 19
Last Quarter

Hourly Weather History & Observations

Time (PDT) Temp. Dew Point Humidity Pressure Visibility Wind Dir Wind Speed Gust Speed Precip Events Conditions
12:53 AM 57.9 °F 52.0 °F 81% 29.95 in 10.0 mi Calm Calm - N/A   Clear
1:53 AM 55.9 °F 52.0 °F 87% 29.94 in 10.0 mi Calm Calm - N/A   Clear
2:53 AM 55.9 °F 51.1 °F 84% 29.94 in 10.0 mi Calm Calm - N/A   Clear
3:53 AM 55.0 °F 51.1 °F 86% 29.94 in 10.0 mi Calm Calm - N/A   Clear
4:53 AM 54.0 °F 50.0 °F 86% 29.93 in 10.0 mi NNW 4.6 mph - N/A   Clear
5:53 AM 54.0 °F 46.9 °F 77% 29.92 in 10.0 mi WNW 4.6 mph - N/A   Clear
6:53 AM 54.0 °F 46.9 °F 77% 29.93 in 10.0 mi Calm Calm - N/A   Clear
7:53 AM 60.1 °F 48.9 °F 67% 29.94 in 10.0 mi Calm Calm - N/A   Clear
8:53 AM 66.9 °F 51.1 °F 57% 29.95 in 10.0 mi Calm Calm - N/A   Clear
9:53 AM 73.0 °F 50.0 °F 44% 29.95 in 10.0 mi SE 3.5 mph - N/A   Clear
10:53 AM 78.1 °F 53.1 °F 42% 29.95 in 10.0 mi SSE 4.6 mph - N/A   Clear
11:53 AM 77.0 °F 53.1 °F 43% 29.94 in 10.0 mi South 8.1 mph - N/A   Clear
12:53 PM 77.0 °F 54.0 °F 45% 29.93 in 10.0 mi South 9.2 mph - N/A   Clear
1:53 PM 79.0 °F 55.0 °F 44% 29.92 in 10.0 mi South 5.8 mph - N/A   Clear
2:53 PM 79.0 °F 55.0 °F 44% 29.91 in 10.0 mi South 8.1 mph - N/A   Clear
4:53 PM 73.9 °F 55.0 °F 52% 29.88 in 10.0 mi South 8.1 mph - N/A   Clear
6:53 PM 64.9 °F 55.9 °F 73% 29.89 in 9.0 mi SSE 4.6 mph - N/A   Clear
7:53 PM 61.0 °F 55.9 °F 83% 29.89 in 7.0 mi South 4.6 mph - N/A   Clear
8:53 PM 60.1 °F 55.9 °F 86% 29.90 in 6.0 mi Calm Calm - N/A   Clear
9:53 PM 61.0 °F 55.9 °F 83% 29.90 in 7.0 mi Calm Calm - N/A   Clear
10:53 PM 60.1 °F 55.0 °F 83% 29.89 in 8.0 mi Calm Calm - N/A   Clear
11:53 PM 57.0 °F 54.0 °F 89% 29.89 in 8.0 mi Calm Calm - N/A   Clear